STARLINK-1608, 46146

Orbit data source: Space-Track

STARLINK-1608, 46146 is a payload satellite owned by SpaceX/Seattle (US) in LEO that was launched on Tue, 18 Aug 2020 UTC via an FALCON 9 launch vehicle from the Air Force Eastern Test Range (AFETR). Payload-class satellites include a variety of spacecraft equipped with specific instruments for various scientific and technological missions. These include communications satellites like Starlink; space stations such as the ISS; scientific satellites like the Hubble; Earth observation satellites from companies like Planet Labs, Umbra, and HawkEye 360; GPS; miniature CubeSats for education and research; and military/defense satellites.

Loading next visibility...
Identifier
46146, 2020-057AF
Orbit
LEO
Country
Flag of USUS
Related business
Manufacturer
SpaceX/Seattle
Mission
Operational Commercial Communications
Bus & Motor
STARLINK, Unknown motor
Mass
260 kg wet, ~248 kg dry
Launch date (UTC)
2020-08-18 (5 years ago)
Launch vehicle
FALCON 9
Launch site
Air Force Eastern Test Range (AFETR)
Object type
Payload
Rocket body
Debris
Shape & HBR
Box + 1 Pan, 10.1 m
Radar Cross Section
13.562 m², Large (>1 m²)

Expand to show TLE details & history
Last TLE update: 12 hours ago

TLE from 12 hours ago
0 STARLINK-1608
1 46146U 20057AF  25308.99026950 -.00003267  00000-0 -20054-3 0  9997
2 46146  53.0523 156.4169 0001331  92.1408 267.9734 15.06401886287278
Epoch: 2025-11-04T23:45Z
TLE epoch observation values (Epoch: 2025-11-04T23:45:59.284Z)
Latitude
0.00001°
Longitude
115.45053°
Altitude
548.117 km
Speed
7.589 km/s
True Right ascension
10h 25m 40s
True Declination
0° 00' 00"
Sunlit
Object was in daylight at epoch
Visualization orbit readout
Latitude
Unknown
Longitude
Unknown
Altitude
Unknown
Speed
Unknown
Apparent Right ascension
Unknown
Apparent Declination
Unknown
Sunlit
N/A
Visualization observer readout
Local Sidereal Time
07:33:11
Azimuth
Unknown
Elevation
Unknown
Doppler factor
Unknown
Orbital elements
Apogee altitude
548.399 km
Perigee altitude
546.555 km
Semi-major axis
6,925.614 km
Eccentricity
0.00013
Inclination
53.0523°
RAAN
156.4169°
Arg. of periapsis
92.1408°
True anomaly
267.95816°
Mean anomaly
267.9734°
Eccentric anomaly
267.96578°
Mean motion
3.76579 °/min
Orbital period
95.6 mins
BSTAR
-0.00020054
Loading maneuver chart data...
Computing Atmospheric mass density...

Documentation

Showing up to 5 results
|